• In Hungary
  • List of Countries
  • For 7 days
  • Water Temperature
  • Satellite Maps
  • Weather Map
  • News
  • Weather Widgets
  • user-avatar
    Login

    Hourly Weather Zaburze

    Today, 21 July, Saturday

    Time Temperature Precipitation Wind Pressure Humidity
    00:00 +18°C° 0 mm 3 mps 738 mmHg 89%
    01:00 +18°C° 0 mm 3 mps 738 mmHg 91%
    02:00 +18°C° 0 mm 2 mps 738 mmHg 93%
    03:00 +17°C° 0 mm 2 mps 738 mmHg 94%
    04:00 +17°C° 0 mm 2 mps 738 mmHg 94%
    05:00 +17°C° 0 mm 2 mps 738 mmHg 95%
    06:00 +18°C° 0 mm 2 mps 739 mmHg 91%
    07:00 +20°C° 0 mm 2 mps 739 mmHg 86%
    08:00 +21°C° 0 mm 3 mps 739 mmHg 82%
    09:00 +22°C° 0.3 mm 3 mps 739 mmHg 76%
    10:00 +24°C° 0.3 mm 3 mps 739 mmHg 71%
    11:00 +26°C° 0.3 mm 3 mps 739 mmHg 65%
    12:00 +26°C° 0.4 mm 3 mps 739 mmHg 62%
    13:00 +27°C° 0.4 mm 3 mps 739 mmHg 59%
    14:00 +28°C° 0.4 mm 3 mps 739 mmHg 56%
    15:00 +27°C° 0.7 mm 3 mps 739 mmHg 57%
    16:00 +27°C° 0.7 mm 3 mps 738 mmHg 58%
    17:00 +27°C° 0.7 mm 3 mps 738 mmHg 60%
    18:00 +26°C° 0.4 mm 2 mps 738 mmHg 66%
    19:00 +24°C° 0.4 mm 2 mps 738 mmHg 72%
    20:00 +23°C° 0.4 mm 2 mps 738 mmHg 79%
    21:00 +21°C° 0 mm 2 mps 738 mmHg 81%
    22:00 +21°C° 0 mm 1 mps 738 mmHg 83%
    23:00 +20°C° 0 mm 1 mps 739 mmHg 85%

    Tomorrow, 22 July, Sunday

    Time Temperature Precipitation Wind Pressure Humidity
    00:00 +19°C° 0 mm 1 mps 739 mmHg 87%
    01:00 +19°C° 0 mm 1 mps 738 mmHg 88%
    02:00 +19°C° 0 mm 1 mps 738 mmHg 89%
    03:00 +18°C° 0 mm 1 mps 738 mmHg 90%
    04:00 +18°C° 0 mm 1 mps 738 mmHg 90%
    05:00 +16°C° 0 mm 0 mps 738 mmHg 90%
    06:00 +19°C° 0 mm 1 mps 738 mmHg 85%
    07:00 +21°C° 0 mm 1 mps 738 mmHg 79%
    08:00 +23°C° 0 mm 1 mps 739 mmHg 74%
    09:00 +24°C° 0 mm 1 mps 738 mmHg 69%
    10:00 +25°C° 0 mm 2 mps 738 mmHg 63%
    11:00 +27°C° 0 mm 2 mps 738 mmHg 58%
    12:00 +27°C° 0 mm 2 mps 738 mmHg 55%
    13:00 +28°C° 0 mm 2 mps 738 mmHg 53%
    14:00 +28°C° 0 mm 2 mps 738 mmHg 51%
    15:00 +28°C° 0 mm 2 mps 737 mmHg 53%
    16:00 +28°C° 0 mm 2 mps 737 mmHg 55%
    17:00 +28°C° 0 mm 2 mps 737 mmHg 56%
    18:00 +26°C° 0 mm 2 mps 737 mmHg 62%
    19:00 +25°C° 0 mm 2 mps 737 mmHg 68%
    20:00 +24°C° 0 mm 1 mps 737 mmHg 73%
    21:00 +22°C° 0 mm 1 mps 737 mmHg 76%
    22:00 +21°C° 0 mm 1 mps 737 mmHg 79%
    23:00 +20°C° 0 mm 1 mps 737 mmHg 82%

    Day after tomorrow, 23 July, Monday

    Time Temperature Precipitation Wind Pressure Humidity
    00:00 +20°C° 0 mm 1 mps 737 mmHg 84%
    01:00 +20°C° 0 mm 1 mps 737 mmHg 85%
    02:00 +19°C° 0 mm 1 mps 737 mmHg 86%
    03:00 +18°C° 0 mm 2 mps 737 mmHg 88%
    04:00 +18°C° 0 mm 2 mps 737 mmHg 89%
    05:00 +17°C° 0 mm 2 mps 737 mmHg 91%
    06:00 +19°C° 0 mm 2 mps 737 mmHg 86%
    07:00 +20°C° 0 mm 3 mps 737 mmHg 82%
    08:00 +22°C° 0 mm 3 mps 737 mmHg 78%
    09:00 +24°C° 0 mm 3 mps 737 mmHg 72%
    10:00 +26°C° 0 mm 4 mps 737 mmHg 66%
    11:00 +27°C° 0 mm 5 mps 737 mmHg 60%
    12:00 +27°C° 0.1 mm 5 mps 737 mmHg 59%
    13:00 +28°C° 0.1 mm 5 mps 737 mmHg 57%
    14:00 +28°C° 0.1 mm 5 mps 737 mmHg 55%
    15:00 +28°C° 0.2 mm 5 mps 737 mmHg 58%
    16:00 +27°C° 0.2 mm 5 mps 737 mmHg 60%
    17:00 +27°C° 0.2 mm 5 mps 737 mmHg 63%
    18:00 +26°C° 0.2 mm 4 mps 737 mmHg 68%
    19:00 +23°C° 0.2 mm 4 mps 737 mmHg 73%
    20:00 +22°C° 0.2 mm 3 mps 737 mmHg 79%
    21:00 +21°C° 0 mm 3 mps 737 mmHg 79%
    22:00 +20°C° 0 mm 4 mps 737 mmHg 80%
    23:00 +20°C° 0 mm 4 mps 737 mmHg 81%

    24 July, Tuesday

    Time Temperature Precipitation Wind Pressure Humidity
    00:00 +19°C° 0 mm 4 mps 737 mmHg 83%
    01:00 +19°C° 0 mm 4 mps 737 mmHg 85%
    02:00 +19°C° 0 mm 4 mps 737 mmHg 86%
    03:00 +18°C° 0.1 mm 4 mps 737 mmHg 88%
    04:00 +18°C° 0.1 mm 4 mps 737 mmHg 90%
    05:00 +17°C° 0.1 mm 4 mps 737 mmHg 93%
    06:00 +18°C° 0 mm 4 mps 738 mmHg 88%
    07:00 +19°C° 0 mm 4 mps 738 mmHg 83%
    08:00 +20°C° 0 mm 5 mps 738 mmHg 78%
    09:00 +21°C° 0 mm 5 mps 738 mmHg 74%
    10:00 +22°C° 0 mm 5 mps 738 mmHg 70%
    11:00 +25°C° 0 mm 5 mps 738 mmHg 65%
    12:00 +26°C° 0.2 mm 5 mps 738 mmHg 63%
    13:00 +26°C° 0.2 mm 5 mps 738 mmHg 60%
    14:00 +27°C° 0.2 mm 5 mps 738 mmHg 58%
    15:00 +27°C° 0.4 mm 5 mps 738 mmHg 58%
    16:00 +27°C° 0.4 mm 5 mps 738 mmHg 59%
    17:00 +27°C° 0.4 mm 5 mps 737 mmHg 60%
    18:00 +26°C° 0.2 mm 5 mps 738 mmHg 65%
    19:00 +23°C° 0.2 mm 4 mps 738 mmHg 71%
    20:00 +22°C° 0.2 mm 3 mps 738 mmHg 77%
    21:00 +21°C° 0 mm 3 mps 738 mmHg 80%
    22:00 +20°C° 0 mm 3 mps 738 mmHg 84%
    23:00 +19°C° 0 mm 3 mps 738 mmHg 87%

    25 July, Wednesday

    Time Temperature Precipitation Wind Pressure Humidity
    00:00 +19°C° 0 mm 3 mps 738 mmHg 89%
    01:00 +19°C° 0 mm 3 mps 738 mmHg 91%
    02:00 +18°C° 0 mm 3 mps 738 mmHg 92%
    03:00 +18°C° 0 mm 3 mps 738 mmHg 93%
    04:00 +18°C° 0 mm 3 mps 738 mmHg 95%
    05:00 +18°C° 0 mm 3 mps 739 mmHg 96%
    06:00 +19°C° 0 mm 3 mps 739 mmHg 92%
    07:00 +20°C° 0 mm 3 mps 739 mmHg 87%
    08:00 +21°C° 0 mm 4 mps 739 mmHg 83%
    09:00 +22°C° 0.2 mm 4 mps 739 mmHg 79%
    10:00 +25°C° 0.2 mm 4 mps 739 mmHg 75%
    11:00 +26°C° 0.2 mm 4 mps 739 mmHg 71%
    12:00 +26°C° 0.5 mm 4 mps 739 mmHg 69%
    13:00 +27°C° 0.5 mm 5 mps 739 mmHg 67%
    14:00 +28°C° 0.5 mm 5 mps 739 mmHg 65%
    15:00 +27°C° 0.5 mm 5 mps 738 mmHg 66%
    16:00 +27°C° 0.5 mm 5 mps 738 mmHg 68%
    17:00 +27°C° 0.5 mm 4 mps 738 mmHg 69%
    18:00 +26°C° 0.5 mm 4 mps 738 mmHg 75%
    19:00 +25°C° 0.5 mm 3 mps 738 mmHg 81%
    20:00 +23°C° 0.5 mm 2 mps 738 mmHg 87%
    21:00 +23°C° 0 mm 2 mps 739 mmHg 90%
    22:00 +21°C° 0 mm 2 mps 739 mmHg 92%
    23:00 +20°C° 0 mm 2 mps 739 mmHg 94%

    26 July, Thursday

    Time Temperature Precipitation Wind Pressure Humidity
    00:00 +20°C° 0 mm 2 mps 739 mmHg 95%
    01:00 +20°C° 0 mm 2 mps 739 mmHg 95%
    02:00 +19°C° 0 mm 2 mps 739 mmHg 96%
    03:00 +19°C° 0 mm 2 mps 739 mmHg 96%
    04:00 +19°C° 0 mm 2 mps 739 mmHg 97%
    05:00 +19°C° 0 mm 2 mps 739 mmHg 97%
    06:00 +20°C° 0.3 mm 2 mps 740 mmHg 94%
    07:00 +21°C° 0.3 mm 2 mps 740 mmHg 91%
    08:00 +23°C° 0.3 mm 2 mps 740 mmHg 88%
    09:00 +25°C° 1.3 mm 3 mps 740 mmHg 83%
    10:00 +26°C° 1.3 mm 3 mps 740 mmHg 78%
    11:00 +27°C° 1.3 mm 3 mps 740 mmHg 73%
    12:00 +27°C° 0.9 mm 3 mps 740 mmHg 72%
    13:00 +28°C° 0.9 mm 3 mps 740 mmHg 70%
    14:00 +28°C° 0.9 mm 2 mps 740 mmHg 69%
    15:00 +28°C° 0.2 mm 3 mps 740 mmHg 68%
    16:00 +28°C° 0.2 mm 3 mps 740 mmHg 66%
    17:00 +29°C° 0.2 mm 3 mps 740 mmHg 65%
    18:00 +27°C° 0.2 mm 2 mps 740 mmHg 70%
    19:00 +26°C° 0.2 mm 2 mps 740 mmHg 76%
    20:00 +25°C° 0.2 mm 1 mps 740 mmHg 81%
    21:00 +24°C° 0.8 mm 1 mps 740 mmHg 84%
    22:00 +23°C° 0.8 mm 1 mps 740 mmHg 86%
    23:00 +22°C° 0.8 mm 1 mps 740 mmHg 88%
    Show more